Regional Weather Roundup
Issued by NWS Albany, NY

Home | Current Version | Previous Version | Graphics & Text | Print | Product List | Glossary Off
Versions: 1 2 3 4 5 6 7 8 9 10 11 12 13 14 15 16 17 18 19 20 21 22 23 24 25 26 27 28 29 30 31 32 33 34 35 36 37 38 39 40 41 42 43 44 45 46 47 48 49 50

000
ASUS41 KALY 210010
RWRALY

NEW YORK STATE HOURLY WEATHER ROUNDUP
NATIONAL WEATHER SERVICE ALBANY NY
800 PM EDT MON APR 20 2015

NOTE: "FAIR" INDICATES FEW OR NO CLOUDS BELOW 12,000 FEET WITH NO
SIGNIFICANT WEATHER AND/OR NO OBSTRUCTIONS TO VISIBILITY.

NYZ032-033-038>043-046>054-057>066-NYZ062>081-210100-
EAST


CITY           SKY/WX    TMP DP  RH WIND       PRES   REMARKS
ALBANY         CLOUDY    55  46  71 CALM      29.69F
GLENS FALLS    CLOUDY    49  45  86 N3        29.71F
POUGHKEEPSIE   CLOUDY    57  52  83 E3        29.66S
NEWBURGH       CLOUDY    55  54  94 NE7       29.67S
MONTGOMERY     CLOUDY    54  50  87 NE6       29.66S
WHITE PLAINS   FOG       53  53 100 E5        29.66R VSB<1/4
ISLIP          FOG       55  55 100 S5        29.65R VSB 1/8
NEW YORK CITY  FOG       50  49  96 NE7       29.65S VSB 1/4
CENTRAL PARK   CLOUDY    53  52  96 E5        29.67S FOG
$$

NYZ005>009-017-018-044>046-055-056-210100-
CENTRAL


CITY           SKY/WX    TMP DP  RH WIND       PRES   REMARKS
FULTON         CLOUDY    54  50  86 SE12G20   29.53R
SYRACUSE       LGT RAIN  53  50  89 NE13      29.54S
ROME           CLOUDY    53  47  79 SE15G23   29.62F
ELMIRA         MOCLDY    63  54  72 VRB3      29.50S
BINGHAMTON     CLOUDY    54  50  86 SE15      29.56F
MONTICELLO     CLOUDY    50  50 100 E12       29.65F
$$

NYZ026>034-041>043-210100-
NORTH


CITY           SKY/WX    TMP DP  RH WIND       PRES   REMARKS
WATERTOWN      LGT RAIN  59  48  67 SE16G26   29.50R
FORT DRUM      NOT AVBL
MASSENA        CLOUDY    56  43  61 SE9       29.58F
SARANAC LAKE   CLOUDY    52  43  71 S14G25    29.62F
PLATTSBURGH    CLOUDY    48  41  76 S12       29.72F
$$

NYZ001>004-010>016-019>021-210100-
WEST


CITY           SKY/WX    TMP DP  RH WIND       PRES   REMARKS
NIAGARA FALLS  LGT RAIN  52  48  86 SW14      29.46R
BUFFALO        LGT RAIN  51  47  86 SW13      29.50R
DUNKIRK        CLOUDY    53  48  83 SW16G30   29.52R
JAMESTOWN      CLOUDY    54  48  82 W13       29.53R
WELLSVILLE     TSTM      55  52  89 W8        29.52R
ROCHESTER      LGT RAIN  59  57  93 W8        29.49R
PENN YAN       CLOUDY    59  54  83 CALM      29.50F
$$

             KEY
       WCI = WIND CHILL INDEX
       VSB = VISIBILITY
       HX  = HEAT INDEX
$$



USA.gov is the U.S. government's official web portal to all federal, state and local government web resources and services.